[[{"header":{"parameterUnit":"m.s-1","parameterCategory":2,"la1":30.2991,"la2":30.254,"lo1":-89.0895,"lo2":-89.0444,"dy":0.0017,"dx":0.0017,"nx":28,"ny":28,"refTime":"2025-01-18T03:00:00:Z","depth":"0","parameterNumber":2,"parameterNumberName":"U-component_of_CURRENTS"},"data":[0,0,0,0,0,0,0,0,0,0,0,0,0,0,0,0,0,0,0,0,0,0,0,0,0,0,0,0,0,0,0,0,0,0,0,0,0,0,0,0,0,0,0,0,0,0,0,0,0,0,0,0,0,0,0,0,0,0,0.2053,0.2055,0,0.2143,0.2143,0.2143,0.2106,0.2105,0.2104,0.2103,0.2021,0.202,0.2018,0,0,0,0,0,0,0,0,0,0,0,0,0,0.1857,0.186,0.2053,0.2055,0.2058,0.2143,0.2143,0.2143,0.2106,0.2105,0.2104,0.2103,0.2021,0.202,0.2018,0,0,0,0,0,0,0,0,0,0,0,0,0,0.1932,0.1861,0.2052,0.2059,0.2062,0.2143,0.2143,0.2143,0.2106,0.2105,0.2104,0.2102,0.2022,0.202,0.2018,0.2034,0,0,0.2012,0.2011,0,0,0,0,0,0,0,0,0.1927,0.1937,0.2056,0.2059,0.2062,0.2124,0.2045,0.2102,0.2107,0.2075,0.2103,0.2102,0.2049,0.2045,0.2048,0.203,0.2026,0.2012,0.2011,0.201,0.2009,0,0,0,0,0,0,0,0.1922,0.1933,0.2075,0.2059,0.2063,0.2062,0.2069,0.2055,0.2055,0.2078,0.2079,0.2111,0.2047,0.205,0.2046,0.2025,0.2012,0.201,0.2009,0.2008,0.2101,0.2104,0,0,0,0,0,0,0.194,0.1929,0.2073,0.2079,0.2005,0.2067,0.2075,0.2094,0.2059,0.2058,0.2112,0.2109,0.2055,0.2048,0.2043,0.2094,0.201,0.2008,0.2007,0.2097,0.2101,0.2105,0,0,0,0,0,0,0.1935,0.1951,0.2069,0.2017,0.2033,0.2073,0.2095,0.2097,0.2109,0.2089,0.2081,0.2123,0.2053,0.2045,0.2049,0.2089,0.2007,0.2005,0.2093,0.2098,0.2103,0.2173,0,0,0,0,0,0,0.1928,0.1948,0.1971,0.2018,0.2038,0.2142,0.2098,0.21,0.2136,0.2133,0.2097,0.2087,0.2051,0.2053,0.2047,0.2084,0.2004,0.2088,0.2095,0.2102,0.2166,0.218,0.2193,0,0,0,0,0,0.1921,0.1992,0.1971,0.199,0.2066,0.2146,0.2155,0.2169,0.2139,0.2166,0.2134,0.2089,0.2093,0.2053,0.2046,0.2084,0.2085,0.2093,0.2101,0.2161,0.2178,0.2192,0,0,0,0,0,0,0.1935,0.1998,0.1975,0.2061,0.2101,0.2145,0.2193,0.2182,0.218,0.2161,0.2115,0.2106,0.2136,0.2111,0.2068,0.2141,0.209,0.2098,0.2138,0.2154,0.2167,0.2147,0.2002,0,0,0,0,0,0.1945,0.1998,0.2046,0.211,0.2136,0.2152,0.2186,0.2184,0.2197,0.2194,0.2166,0.2152,0.2168,0.2157,0.2165,0.2182,0.2192,0.2215,0.2228,0.2238,0.2225,0.2309,0.2327,0.2132,0.2132,0.2132,0,0,0.1971,0.2011,0.2042,0.2114,0.2139,0.2163,0.2166,0.2227,0.2233,0.2185,0.2183,0.2196,0.219,0.2223,0.2234,0.2197,0.2306,0.2249,0.2257,0.2237,0.2319,0.2338,0.2354,0.2138,0.2137,0.2136,0,0,0.2044,0.2078,0.2131,0.2152,0.2203,0.2208,0.2226,0.226,0.227,0.2283,0.2266,0.2298,0.2294,0.2306,0.231,0.2402,0.2384,0.2423,0.2447,0.2531,0.2546,0.256,0.2611,0.2629,0.2414,0.2414,0.2414,0,0.2068,0.2111,0.2164,0.2194,0.2205,0.2221,0.2238,0.2265,0.2286,0.2319,0.2292,0.2348,0.2333,0.2392,0.2421,0.2426,0.2464,0.2377,0.2544,0.2558,0.257,0.262,0.2639,0.2419,0.2418,0.2418,0.2417,0,0.2121,0.2161,0.2204,0.2213,0.2243,0.2273,0.2298,0.2336,0.2337,0.236,0.2437,0.2435,0.2471,0.2491,0.2466,0.2568,0.2565,0.256,0.2492,0.2594,0.2641,0.2658,0.2425,0.2423,0.2422,0.2421,0,0,0.2161,0.2223,0.2226,0.2227,0.2237,0.2272,0.2312,0.2372,0.2426,0.2449,0.2514,0.2553,0.2576,0.2584,0.2588,0.2636,0.2756,0.2629,0.2631,0.2657,0.2934,0.2931,0.295,0.279,0.2793,0.2796,0.2934,0,0.2169,0.2206,0.2232,0.2252,0.2271,0.2296,0.2342,0.2399,0.2454,0.2529,0.2575,0.2631,0.2608,0.2633,0.2688,0.2734,0.2805,0.2717,0.285,0.2853,0.282,0.2971,0.2882,0.2999,0.2951,0.2954,0.2956,0,0.2183,0.2208,0.2225,0.228,0.2293,0.2298,0.2376,0.2429,0.2555,0.2615,0.2689,0.2719,0.2784,0.2754,0.2885,0.2836,0.2897,0.2927,0.2934,0.291,0.2884,0.289,0.3032,0.2883,0.2983,0.2981,0.2979,0,0.2154,0.2204,0.2208,0.2208,0.2275,0.2306,0.2337,0.2455,0.253,0.2665,0.2718,0.2819,0.2853,0.2945,0.2989,0.2962,0.3131,0.3108,0.317,0.3169,0.3104,0.3092,0.3091,0.3242,0.3242,0.3242,0.3241,0,0.2144,0.2165,0.2196,0.22,0.2237,0.229,0.2372,0.2452,0.2572,0.2664,0.2749,0.2815,0.2908,0.2993,0.3044,0.3158,0.3192,0.3203,0.3224,0.3129,0.3119,0.299,0.2923,0.3247,0.3246,0.3245,0.3244,0,0.2152,0.2157,0.2181,0.2221,0.2233,0.2261,0.2347,0.2426,0.2548,0.2659,0.2692,0.2833,0.296,0.3045,0.3194,0.3228,0.3245,0.337,0.3233,0.3237,0.3144,0.3085,0.3069,0.2989,0.3473,0.3475,0.3475,0,0.2156,0.2177,0.2179,0.2162,0.2176,0.2227,0.2277,0.2403,0.2478,0.2662,0.2699,0.2853,0.2962,0.3172,0.3283,0.342,0.3286,0.3401,0.3338,0.3152,0.3103,0.2984,0.2908,0.3285,0.3284,0.3284,0.3283,0,0.2189,0.2184,0.2184,0.2142,0.2146,0.2188,0.2246,0.2301,0.2469,0.2556,0.2685,0.2783,0.3025,0.3137,0.3324,0.3389,0.3221,0.3395,0.325,0.3007,0.283,0.2757,0.3151,0.3278,0.3278,0.3279,0.3279,0.3279,0.2202,0.2187,0.2154,0.2112,0.2104,0.2115,0.2133,0.2218,0.2317,0.243,0.2589,0.2698,0.2923,0.319,0.324,0.3226,0.3232,0.315,0.3113,0.3021,0.2885,0.3258,0.3375,0.3376,0.3377,0.3378,0.3379,0,0.2183,0.2164,0.2123,0.2063,0.2014,0.2035,0.2093,0.2108,0.2172,0.2309,0.2417,0.2574,0.2726,0.2873,0.2987,0.2925,0.2829,0.2838,0.2618,0.2574,0.2954,0.288,0.2836,0.2836,0.2836,0.2836,0.2836,0.2837,0.2178,0.2129,0.2093,0.198,0.1933,0.1888,0.1894,0.1924,0.1995,0.2054,0.2115,0.2237,0.2452,0.2611,0.2576,0.2552,0.2344,0.2323,0.228,0.2491,0.2514,0.2535,0.2447,0.2313,0.2313,0.181,0.1805,0.1802]},{"header":{"parameterUnit":"m.s-1","parameterCategory":2,"la1":30.2991,"la2":30.254,"lo1":-89.0895,"lo2":-89.0444,"dy":0.0017,"dx":0.0017,"nx":28,"ny":28,"refTime":"2025-01-18T03:00:00:Z","depth":"0","parameterNumber":3,"parameterNumberName":"V-component_of_CURRENTS"},"data":[0,0,0,0,0,0,0,0,0,0,0,0,0,0,0,0,0,0,0,0,0,0,0,0,0,0,0,0,0,0,0,0,0,0,0,0,0,0,0,0,0,0,0,0,0,0,0,0,0,0,0,0,0,0,0,0,0,0,-0.0831,-0.0833,0,-0.0922,-0.0923,-0.0923,-0.0945,-0.0945,-0.0944,-0.0944,-0.0872,-0.0871,-0.0869,0,0,0,0,0,0,0,0,0,0,0,0,0,-0.0791,-0.0791,-0.0831,-0.0833,-0.0834,-0.0922,-0.0923,-0.0923,-0.0945,-0.0945,-0.0944,-0.0944,-0.0873,-0.0871,-0.0869,0,0,0,0,0,0,0,0,0,0,0,0,0,-0.0833,-0.0791,-0.0831,-0.0859,-0.0863,-0.0922,-0.0923,-0.0924,-0.0945,-0.0945,-0.0944,-0.0944,-0.0874,-0.0871,-0.0869,-0.0857,0,0,-0.0861,-0.0859,0,0,0,0,0,0,0,0,-0.083,-0.0834,-0.0853,-0.0857,-0.0862,-0.0926,-0.0883,-0.0895,-0.0945,-0.0909,-0.0944,-0.0944,-0.0879,-0.0876,-0.0889,-0.0854,-0.0851,-0.086,-0.0859,-0.0858,-0.0857,0,0,0,0,0,0,0,-0.0827,-0.0831,-0.0862,-0.0855,-0.086,-0.0907,-0.0911,-0.0886,-0.0887,-0.0912,-0.0915,-0.0933,-0.0879,-0.0891,-0.0887,-0.085,-0.086,-0.0858,-0.0856,-0.0855,-0.0863,-0.0865,0,0,0,0,0,0,-0.082,-0.0827,-0.0859,-0.0865,-0.0851,-0.0908,-0.0912,-0.0902,-0.0891,-0.0892,-0.0933,-0.0933,-0.0896,-0.089,-0.0884,-0.0868,-0.0858,-0.0855,-0.0854,-0.0862,-0.0864,-0.0866,0,0,0,0,0,0,-0.0818,-0.0821,-0.0856,-0.0854,-0.0863,-0.0908,-0.0897,-0.0904,-0.0922,-0.091,-0.0906,-0.0946,-0.0895,-0.0888,-0.0862,-0.0865,-0.0854,-0.0852,-0.086,-0.0862,-0.0865,-0.0835,0,0,0,0,0,0,-0.0816,-0.0819,-0.0823,-0.0852,-0.0862,-0.0887,-0.0898,-0.0906,-0.0936,-0.0937,-0.0919,-0.0913,-0.0895,-0.0866,-0.086,-0.0861,-0.0849,-0.0857,-0.0861,-0.0864,-0.0834,-0.0836,-0.0839,0,0,0,0,0,-0.0814,-0.0835,-0.0822,-0.0828,-0.0861,-0.0888,-0.0897,-0.0927,-0.0937,-0.0942,-0.093,-0.0913,-0.0885,-0.0864,-0.0856,-0.0857,-0.0856,-0.086,-0.0864,-0.0833,-0.0836,-0.0839,0,0,0,0,0,0,-0.0839,-0.084,-0.0827,-0.0849,-0.0859,-0.0893,-0.092,-0.0931,-0.0932,-0.0925,-0.0911,-0.0903,-0.0887,-0.0888,-0.0866,-0.088,-0.0878,-0.088,-0.0857,-0.086,-0.0862,-0.0841,-0.0847,0,0,0,0,0,-0.0839,-0.0841,-0.0846,-0.0864,-0.0865,-0.0887,-0.0909,-0.0913,-0.0919,-0.0922,-0.0905,-0.0901,-0.0901,-0.089,-0.0881,-0.087,-0.0864,-0.0881,-0.0883,-0.0884,-0.0869,-0.0881,-0.0881,-0.0879,-0.0879,-0.0879,0,0,-0.0866,-0.0859,-0.0869,-0.0868,-0.0878,-0.0859,-0.0898,-0.0918,-0.0906,-0.0908,-0.0885,-0.0894,-0.0901,-0.0893,-0.0889,-0.0887,-0.0883,-0.089,-0.089,-0.0873,-0.0885,-0.0884,-0.0884,-0.0882,-0.0881,-0.0881,0,0,-0.0898,-0.0894,-0.0893,-0.0881,-0.0879,-0.087,-0.0871,-0.088,-0.0891,-0.0868,-0.0884,-0.0892,-0.0873,-0.0887,-0.0892,-0.0907,-0.0893,-0.0926,-0.091,-0.0923,-0.0921,-0.092,-0.0901,-0.0898,-0.0929,-0.0929,-0.0929,0,-0.0921,-0.0896,-0.0905,-0.0879,-0.0863,-0.0862,-0.0834,-0.0845,-0.0844,-0.086,-0.085,-0.0865,-0.0868,-0.0882,-0.0897,-0.0906,-0.0904,-0.0887,-0.092,-0.0919,-0.0919,-0.0899,-0.0897,-0.0928,-0.0928,-0.0928,-0.0928,0,-0.0908,-0.0898,-0.0899,-0.0833,-0.0824,-0.0804,-0.079,-0.0796,-0.0793,-0.0802,-0.0816,-0.0822,-0.0839,-0.0859,-0.0873,-0.0894,-0.089,-0.0914,-0.0898,-0.0916,-0.0896,-0.0893,-0.0926,-0.0927,-0.0927,-0.0927,0,0,-0.0933,-0.089,-0.089,-0.0853,-0.0784,-0.0777,-0.0758,-0.0751,-0.0769,-0.0755,-0.0767,-0.0787,-0.081,-0.0822,-0.0854,-0.0868,-0.0866,-0.089,-0.0892,-0.0844,-0.0869,-0.0822,-0.0815,-0.0896,-0.0896,-0.0896,-0.085,0,-0.0906,-0.0841,-0.0828,-0.0771,-0.0729,-0.0719,-0.0714,-0.0717,-0.0721,-0.0734,-0.0759,-0.0772,-0.0792,-0.0811,-0.0823,-0.0858,-0.0861,-0.0874,-0.0882,-0.0882,-0.0816,-0.0812,-0.0767,-0.0719,-0.0848,-0.0848,-0.0848,0,-0.0865,-0.0834,-0.0764,-0.0736,-0.0723,-0.0689,-0.0676,-0.0681,-0.0714,-0.0734,-0.0741,-0.0753,-0.0764,-0.0785,-0.0803,-0.0811,-0.0835,-0.0853,-0.0853,-0.0813,-0.0831,-0.0729,-0.071,-0.081,-0.0844,-0.0844,-0.0845,0,-0.0829,-0.0786,-0.0723,-0.0697,-0.0667,-0.0668,-0.0656,-0.0683,-0.0703,-0.073,-0.0723,-0.0741,-0.0732,-0.076,-0.0777,-0.0801,-0.0782,-0.0825,-0.0795,-0.0791,-0.0754,-0.0747,-0.0807,-0.0838,-0.0838,-0.0838,-0.0838,0,-0.077,-0.0748,-0.071,-0.0678,-0.0655,-0.065,-0.0653,-0.0674,-0.0694,-0.0681,-0.0718,-0.0677,-0.073,-0.0716,-0.0752,-0.0737,-0.0759,-0.0771,-0.0775,-0.0744,-0.0736,-0.0823,-0.0883,-0.0836,-0.0837,-0.0837,-0.0837,0,-0.0766,-0.0719,-0.0667,-0.0636,-0.0631,-0.0619,-0.0622,-0.0631,-0.0668,-0.0636,-0.0632,-0.0627,-0.06,-0.0633,-0.0665,-0.069,-0.0731,-0.0702,-0.0639,-0.0636,-0.0705,-0.0764,-0.0791,-0.0815,-0.0658,-0.0657,-0.0656,0,-0.0751,-0.0727,-0.0645,-0.0591,-0.0577,-0.0572,-0.0568,-0.0611,-0.0596,-0.0574,-0.0527,-0.0506,-0.0435,-0.045,-0.0513,-0.0546,-0.0658,-0.0554,-0.06,-0.0683,-0.0753,-0.0805,-0.0828,-0.0538,-0.0536,-0.0535,-0.0533,0,-0.077,-0.0733,-0.0677,-0.0554,-0.0502,-0.0473,-0.045,-0.0441,-0.0466,-0.0409,-0.03,-0.0245,-0.027,-0.0251,-0.0338,-0.0394,-0.0603,-0.0519,-0.0636,-0.0676,-0.0707,-0.0739,-0.0582,-0.0518,-0.052,-0.0521,-0.0522,-0.0522,-0.0789,-0.0739,-0.0622,-0.0497,-0.0415,-0.0323,-0.0277,-0.0232,-0.0164,-0.002,-0.0053,0.0116,-0.0009,-0.01,-0.0231,-0.045,-0.0484,-0.0516,-0.058,-0.0625,-0.0653,-0.0438,-0.0368,-0.0368,-0.0369,-0.0369,-0.037,0,-0.0759,-0.0686,-0.0573,-0.0389,-0.0232,-0.0225,-0.0152,-0.0072,0.0084,0.0232,0.0362,0.0443,0.0299,0.0066,-0.0244,-0.0455,-0.0576,-0.0597,-0.069,-0.0712,-0.0542,-0.0544,-0.0472,-0.0471,-0.0471,-0.0471,-0.0471,-0.0471,-0.0746,-0.0623,-0.0532,-0.0237,-0.0099,0.0074,0.0145,0.0273,0.0398,0.0671,0.0837,0.0888,0.0704,0.0011,-0.0456,-0.0593,-0.0779,-0.0807,-0.0907,-0.0835,-0.0835,-0.0834,-0.0853,-0.0846,-0.0847,-0.1046,-0.1048,-0.105]}],[{"header":{"parameterUnit":"m.s-1","parameterCategory":2,"la1":30.2991,"la2":30.254,"lo1":-89.0895,"lo2":-89.0444,"dy":0.0017,"dx":0.0017,"nx":28,"ny":28,"refTime":"2025-01-18T03:00:00:Z","depth":"2","parameterNumber":2,"parameterNumberName":"U-component_of_CURRENTS"},"data":[0,0,0,0,0,0,0,0,0,0,0,0,0,0,0,0,0,0,0,0,0,0,0,0,0,0,0,0,0,0,0,0,0,0,0,0,0,0,0,0,0,0,0,0,0,0,0,0,0,0,0,0,0,0,0,0,0,0,0.0546,0.0544,0,0.05,0.05,0.0501,0.0645,0.0648,0.0652,0.0655,0.0932,0.0936,0.094,0,0,0,0,0,0,0,0,0,0,0,0,0,0.0769,0.0765,0.0546,0.0544,0.0542,0.05,0.05,0.0501,0.0645,0.0649,0.0653,0.0656,0.093,0.0935,0.0941,0,0,0,0,0,0,0,0,0,0,0,0,0,0.0704,0.0764,0.0546,0.06,0.0603,0.05,0.05,0.0501,0.0644,0.0649,0.0654,0.0658,0.0929,0.0935,0.0941,0.0885,0,0,0.0961,0.0964,0,0,0,0,0,0,0,0,0.0708,0.0698,0.0593,0.0596,0.0599,0.0572,0.068,0.0641,0.0643,0.0642,0.0655,0.066,0.0829,0.0844,0.0839,0.0898,0.091,0.0962,0.0966,0.0969,0.0971,0,0,0,0,0,0,0,0.0712,0.07,0.0541,0.0591,0.0594,0.0628,0.0626,0.0673,0.0725,0.0642,0.0649,0.0622,0.0836,0.0831,0.0847,0.0914,0.0962,0.0968,0.0972,0.0974,0.1143,0.1143,0,0,0,0,0,0,0.0685,0.0703,0.0542,0.0538,0.0652,0.0619,0.0617,0.0586,0.0718,0.0736,0.0618,0.0629,0.0818,0.0839,0.0857,0.0974,0.0969,0.0975,0.0979,0.1142,0.1143,0.1143,0,0,0,0,0,0,0.069,0.0671,0.0543,0.0611,0.0596,0.0609,0.0574,0.0582,0.0608,0.0693,0.0722,0.0637,0.0823,0.0848,0.1014,0.098,0.0978,0.0984,0.1141,0.1142,0.1143,0.1095,0,0,0,0,0,0,0.0696,0.0673,0.0658,0.0608,0.059,0.05,0.0568,0.0578,0.0576,0.0591,0.0718,0.0747,0.0828,0.1004,0.102,0.0989,0.0989,0.1141,0.1142,0.1143,0.1096,0.1094,0.1093,0,0,0,0,0,0.0705,0.0625,0.0658,0.0639,0.0564,0.0497,0.0493,0.0529,0.0572,0.0574,0.0734,0.0744,0.1019,0.1013,0.1031,0.1,0.114,0.1141,0.1143,0.1097,0.1095,0.1093,0,0,0,0,0,0,0.0727,0.0629,0.0665,0.057,0.0556,0.0518,0.051,0.052,0.0628,0.0681,0.0791,0.0832,0.0914,0.0987,0.0976,0.105,0.1061,0.1066,0.102,0.1018,0.1016,0.1005,0.0994,0,0,0,0,0,0.0716,0.0624,0.0591,0.0519,0.0527,0.0527,0.0509,0.0526,0.0589,0.0637,0.074,0.0853,0.0914,0.1006,0.1052,0.1144,0.1194,0.1124,0.1122,0.1121,0.1124,0.1173,0.1176,0.1147,0.1147,0.1147,0,0,0.0667,0.0632,0.0562,0.0516,0.0527,0.0584,0.0535,0.0504,0.0552,0.0652,0.0797,0.0825,0.0924,0.101,0.1054,0.1097,0.1164,0.1122,0.112,0.1125,0.1175,0.1177,0.118,0.1148,0.1148,0.1148,0,0,0.0628,0.0553,0.0539,0.0535,0.0543,0.0569,0.0566,0.057,0.0581,0.0711,0.0745,0.0793,0.0972,0.0989,0.1036,0.1054,0.1105,0.1051,0.1096,0.1143,0.1145,0.1148,0.1252,0.1265,0.1108,0.1108,0.1108,0,0.0616,0.0612,0.0524,0.0582,0.0574,0.059,0.0637,0.0653,0.0712,0.0694,0.0788,0.0909,0.0957,0.0997,0.1013,0.1039,0.1118,0.1095,0.1139,0.1143,0.1146,0.1252,0.1266,0.1106,0.1106,0.1107,0.1107,0,0.0689,0.0654,0.0644,0.0747,0.0724,0.0727,0.0747,0.0755,0.0811,0.0828,0.0846,0.093,0.1011,0.0984,0.1041,0.1033,0.1098,0.108,0.1139,0.1146,0.1258,0.1274,0.1103,0.1104,0.1105,0.1105,0,0,0.0643,0.0699,0.0686,0.075,0.0788,0.0789,0.082,0.0827,0.0857,0.0925,0.0959,0.0994,0.0987,0.1032,0.1023,0.107,0.1145,0.1117,0.1121,0.1213,0.1325,0.1318,0.1336,0.1158,0.1159,0.1161,0.1408,0,0.0745,0.0875,0.085,0.0942,0.0983,0.0939,0.0966,0.0944,0.097,0.1024,0.0989,0.1062,0.1027,0.1071,0.1095,0.1117,0.118,0.1084,0.1312,0.132,0.1304,0.1349,0.1206,0.1409,0.1423,0.1426,0.1428,0,0.0853,0.0877,0.097,0.0989,0.1011,0.1091,0.1071,0.1108,0.1091,0.1085,0.1107,0.1127,0.1162,0.1154,0.1251,0.1215,0.1268,0.1297,0.1308,0.1324,0.1339,0.1398,0.1437,0.1454,0.1452,0.145,0.1448,0,0.0884,0.0962,0.1031,0.1038,0.1077,0.1072,0.1157,0.111,0.1085,0.1145,0.1179,0.1222,0.1301,0.1351,0.1411,0.1367,0.1552,0.15,0.1542,0.1546,0.1476,0.147,0.1563,0.1562,0.1562,0.1561,0.156,0,0.0979,0.102,0.1062,0.1081,0.1132,0.1134,0.1164,0.1218,0.121,0.126,0.1251,0.1311,0.1358,0.1455,0.1486,0.1597,0.1631,0.1564,0.16,0.1461,0.145,0.1512,0.1503,0.157,0.1568,0.1567,0.1565,0,0.0982,0.105,0.1119,0.1148,0.1138,0.1208,0.1224,0.1249,0.1253,0.1327,0.1363,0.1417,0.1598,0.1643,0.1769,0.1715,0.1796,0.1813,0.1676,0.1688,0.1749,0.1735,0.1907,0.1909,0.191,0.1911,0.1912,0,0.1016,0.1002,0.1111,0.1163,0.1194,0.122,0.1206,0.1251,0.1288,0.1403,0.1487,0.1642,0.1739,0.1906,0.1889,0.1978,0.1958,0.1845,0.1672,0.1762,0.1781,0.1764,0.1749,0.16,0.1598,0.1597,0.1596,0,0.0971,0.1035,0.1106,0.1133,0.1207,0.1235,0.1301,0.1309,0.1395,0.1458,0.1627,0.1709,0.1875,0.1862,0.1924,0.1937,0.1813,0.182,0.1977,0.1509,0.1485,0.1498,0.1491,0.1584,0.1585,0.1586,0.1586,0.1587,0.094,0.0986,0.1066,0.1136,0.1198,0.127,0.1298,0.1363,0.1422,0.1547,0.1675,0.1726,0.1711,0.1719,0.1742,0.1758,0.184,0.171,0.1709,0.1711,0.1605,0.1581,0.1684,0.1686,0.1688,0.1689,0.169,0,0.0954,0.0996,0.1027,0.1155,0.1208,0.1269,0.1318,0.1309,0.14,0.1532,0.162,0.146,0.146,0.1514,0.1488,0.1481,0.1427,0.1467,0.1348,0.1363,0.1376,0.1245,0.1234,0.1232,0.1231,0.123,0,0,0.0947,0.1041,0.1046,0.1116,0.1166,0.1198,0.1245,0.1274,0.1297,0.1311,0.1307,0.1353,0.1393,0.1217,0.1247,0.1241,0.1293,0.123,0.1597,0.147,0.148,0.1526,0.1345,0,0,0,0,0]},{"header":{"parameterUnit":"m.s-1","parameterCategory":2,"la1":30.2991,"la2":30.254,"lo1":-89.0895,"lo2":-89.0444,"dy":0.0017,"dx":0.0017,"nx":28,"ny":28,"refTime":"2025-01-18T03:00:00:Z","depth":"2","parameterNumber":3,"parameterNumberName":"V-component_of_CURRENTS"},"data":[0,0,0,0,0,0,0,0,0,0,0,0,0,0,0,0,0,0,0,0,0,0,0,0,0,0,0,0,0,0,0,0,0,0,0,0,0,0,0,0,0,0,0,0,0,0,0,0,0,0,0,0,0,0,0,0,0,0,0.0277,0.0278,0,0.0227,0.0225,0.0223,0.004,0.0038,0.0035,0.0033,-0.02,-0.0204,-0.0208,0,0,0,0,0,0,0,0,0,0,0,0,0,0.0039,0.0044,0.0277,0.0278,0.0279,0.0228,0.0225,0.0223,0.0041,0.0038,0.0035,0.0032,-0.0199,-0.0203,-0.0208,0,0,0,0,0,0,0,0,0,0,0,0,0,0.0064,0.0046,0.0277,0.0196,0.0189,0.0228,0.0225,0.0222,0.0041,0.0037,0.0034,0.003,-0.0197,-0.0203,-0.0209,-0.0171,0,0,-0.0227,-0.0229,0,0,0,0,0,0,0,0,0.0063,0.0071,0.0207,0.0202,0.0195,0.0153,0.0057,0.0088,0.0042,0.0078,0.0033,0.0029,-0.0084,-0.0099,-0.0125,-0.0182,-0.0192,-0.0227,-0.0231,-0.0233,-0.0235,0,0,0,0,0,0,0,0.0062,0.0071,0.0238,0.0209,0.0202,0.0104,0.0103,0.006,0.0,0.0074,0.0066,0.0091,-0.0092,-0.0118,-0.0132,-0.0195,-0.0227,-0.0232,-0.0236,-0.0238,-0.0349,-0.0349,0,0,0,0,0,0,0.0121,0.0072,0.024,0.0239,0.014,0.0113,0.0111,0.0155,0.0004,-0.0015,0.0095,0.0083,-0.0107,-0.0125,-0.0141,-0.0185,-0.0233,-0.0239,-0.0242,-0.035,-0.0349,-0.0349,0,0,0,0,0,0,0.0116,0.0137,0.0242,0.0166,0.0175,0.0125,0.0173,0.0156,0.0117,0.0025,-0.0003,0.0073,-0.011,-0.0132,-0.0241,-0.0193,-0.0241,-0.0247,-0.0351,-0.035,-0.0349,-0.0222,0,0,0,0,0,0,0.0109,0.0136,0.0156,0.0172,0.0183,0.0254,0.0178,0.0158,0.0148,0.0132,-0.0001,-0.0026,-0.0115,-0.0232,-0.0247,-0.0202,-0.0251,-0.0351,-0.035,-0.0349,-0.0227,-0.0217,-0.0209,0,0,0,0,0,0.0101,0.0163,0.0158,0.0177,0.0224,0.0258,0.025,0.0187,0.0152,0.0135,0.0011,-0.0023,-0.0234,-0.0238,-0.0255,-0.021,-0.0352,-0.0351,-0.0349,-0.0231,-0.0219,-0.0209,0,0,0,0,0,0,0.0062,0.0154,0.0146,0.0229,0.0239,0.0233,0.0228,0.0205,0.0104,0.0062,-0.0039,-0.0073,-0.0132,-0.0196,-0.0197,-0.024,-0.0286,-0.0288,-0.019,-0.018,-0.017,-0.0139,-0.0256,0,0,0,0,0,0.0079,0.0153,0.0196,0.026,0.0269,0.0251,0.0252,0.0214,0.0156,0.0108,0.0018,-0.0076,-0.0129,-0.0183,-0.0249,-0.0285,-0.0316,-0.0261,-0.0252,-0.0243,-0.0231,-0.0249,-0.0239,-0.0345,-0.0345,-0.0345,0,0,0.011,0.015,0.0205,0.0257,0.0254,0.0239,0.0235,0.0242,0.0222,0.0102,0.0013,-0.0044,-0.0131,-0.0184,-0.0212,-0.0243,-0.023,-0.0242,-0.0234,-0.0226,-0.0247,-0.0236,-0.0227,-0.0344,-0.0344,-0.0344,0,0,0.0173,0.0215,0.0275,0.0264,0.0272,0.0246,0.0259,0.0239,0.0218,0.0151,0.0076,0.0032,-0.0081,-0.0122,-0.0154,-0.0126,-0.0169,-0.0133,-0.0074,-0.0091,-0.0082,-0.0074,-0.0092,-0.0087,-0.014,-0.014,-0.014,0,0.0195,0.0234,0.0291,0.0286,0.0293,0.0252,0.0266,0.0234,0.0171,0.0201,0.0121,0.0035,-0.0043,-0.0044,-0.0056,-0.0097,-0.0127,-0.0106,-0.0076,-0.0069,-0.0064,-0.0084,-0.008,-0.0134,-0.0135,-0.0135,-0.0136,0,0.0198,0.025,0.0273,0.0255,0.0289,0.027,0.0275,0.0266,0.0236,0.0222,0.023,0.0118,0.0078,0.0067,-0.0005,0.003,-0.0008,-0.0048,-0.0095,-0.0045,-0.007,-0.0068,-0.0125,-0.0127,-0.0129,-0.0131,0,0,0.0265,0.0273,0.0277,0.0279,0.0255,0.0278,0.0305,0.0342,0.0382,0.0299,0.0364,0.0273,0.0252,0.0214,0.0158,0.0128,0.0137,0.0051,0.0047,0.0051,0.0095,0.0083,0.0083,0.0097,0.0098,0.0099,0.0065,0,0.0241,0.0228,0.0253,0.0258,0.0289,0.0295,0.0355,0.0398,0.0409,0.0432,0.0403,0.0388,0.0297,0.0284,0.0249,0.0159,0.0146,0.015,0.003,0.0027,0.0025,0.0087,0.0058,0.0027,0.0066,0.0066,0.0067,0,0.0216,0.0244,0.0281,0.0345,0.0359,0.0336,0.0455,0.0479,0.0558,0.0601,0.0603,0.0555,0.0509,0.0416,0.0304,0.0303,0.022,0.0146,0.0142,0.009,0.002,-0.0022,0.0028,0.0069,0.0069,0.0069,0.0068,0,0.0243,0.0248,0.0286,0.0279,0.0364,0.0414,0.0398,0.0538,0.061,0.0675,0.0717,0.0679,0.0624,0.0521,0.0356,0.0324,0.0235,0.0173,0.0101,0.0098,0.0031,0.0022,0.0134,0.0134,0.0134,0.0134,0.0134,0,0.0205,0.0221,0.0277,0.0292,0.0365,0.0437,0.0547,0.056,0.0665,0.0723,0.0755,0.0795,0.064,0.0564,0.042,0.0268,0.0284,0.0135,0.0099,0.0074,0.0069,0.0062,0.0054,0.0133,0.0133,0.0134,0.0134,0,0.0247,0.0245,0.0277,0.0352,0.0401,0.0419,0.0512,0.0593,0.0698,0.0763,0.0769,0.0839,0.0762,0.0626,0.0467,0.0341,0.0207,0.0163,0.0148,0.0112,0.0065,0.0064,0.0071,0.007,0.007,0.007,0.0069,0,0.0269,0.033,0.0338,0.0347,0.035,0.0437,0.0557,0.0615,0.0668,0.0787,0.0782,0.0792,0.0836,0.0667,0.0438,0.0236,0.0227,0.0101,0.0045,0.01,0.0063,0.0063,0.0062,-0.0,-0.0001,-0.0002,-0.0002,0,0.0353,0.0312,0.0335,0.0398,0.0423,0.0516,0.0569,0.0623,0.0714,0.0793,0.0873,0.0933,0.08,0.0641,0.0406,0.0264,0.0126,0.0081,0.015,0.0028,0.0032,-0.0004,-0.0002,-0.0008,-0.0008,-0.0007,-0.0007,-0.0007,0.0393,0.0406,0.0422,0.0443,0.0505,0.0579,0.0636,0.0704,0.0825,0.0896,0.0918,0.0999,0.0817,0.0534,0.0314,0.007,0.0082,-0.0013,-0.0011,-0.0008,-0.0003,0.0002,-0.0044,-0.0044,-0.0043,-0.0043,-0.0043,0,0.0413,0.0439,0.0489,0.0519,0.0603,0.0579,0.0711,0.0803,0.0928,0.0931,0.102,0.0876,0.0727,0.0517,0.0121,-0.0075,-0.0096,-0.0113,-0.0117,-0.011,-0.0104,-0.0104,-0.0172,-0.0172,-0.0173,-0.0174,0,0,0.0453,0.0451,0.0499,0.064,0.0692,0.0808,0.0867,0.0958,0.1006,0.1076,0.1058,0.1062,0.0784,0.048,0.0213,0.0005,-0.0001,-0.0023,0.0096,0.0128,0.0136,-0.0036,-0.0026,0,0,0,0,0]}],[{"header":{"parameterUnit":"m.s-1","parameterCategory":2,"la1":30.2991,"la2":30.254,"lo1":-89.0895,"lo2":-89.0444,"dy":0.0017,"dx":0.0017,"nx":28,"ny":28,"refTime":"2025-01-18T03:00:00:Z","depth":"4","parameterNumber":2,"parameterNumberName":"U-component_of_CURRENTS"},"data":[0,0,0,0,0,0,0,0,0,0,0,0,0,0,0,0,0,0,0,0,0,0,0,0,0,0,0,0,0,0,0,0,0,0,0,0,0,0,0,0,0,0,0,0,0,0,0,0,0,0,0,0,0,0,0,0,0,0,-0.0102,-0.0102,0,-0.0106,-0.0107,-0.0107,-0.0133,-0.0133,-0.0133,-0.0133,-0.0154,-0.0154,-0.0155,0,0,0,0,0,0,0,0,0,0,0,0,0,-0.0137,-0.0136,-0.0102,-0.0102,-0.0101,-0.0106,-0.0107,-0.0107,-0.0133,-0.0133,-0.0133,-0.0133,-0.0154,-0.0154,-0.0155,0,0,0,0,0,0,0,0,0,0,0,0,0,-0.0135,-0.0136,-0.0102,-0.0111,-0.0111,-0.0106,-0.0107,-0.0107,-0.0133,-0.0133,-0.0133,-0.0134,-0.0153,-0.0154,-0.0155,-0.0155,0,0,-0.0157,-0.0157,0,0,0,0,0,0,0,0,-0.0135,-0.0134,-0.011,-0.011,-0.011,-0.0114,-0.0126,-0.0122,-0.0133,-0.0131,-0.0133,-0.0134,-0.0138,-0.014,-0.0148,-0.0156,-0.0157,-0.0157,-0.0157,-0.0157,-0.0158,0,0,0,0,0,0,0,-0.0135,-0.0134,-0.011,-0.0109,-0.0109,-0.012,-0.0121,-0.0126,-0.0138,-0.0131,-0.0131,-0.0123,-0.0139,-0.0148,-0.0149,-0.0158,-0.0157,-0.0157,-0.0158,-0.0158,-0.0151,-0.0151,0,0,0,0,0,0,-0.0121,-0.0134,-0.0109,-0.0109,-0.0117,-0.0119,-0.012,-0.0118,-0.0138,-0.0139,-0.0122,-0.0124,-0.0147,-0.0148,-0.015,-0.0147,-0.0157,-0.0158,-0.0158,-0.0152,-0.0151,-0.0151,0,0,0,0,0,0,-0.0122,-0.012,-0.0109,-0.0117,-0.0115,-0.0117,-0.0115,-0.0117,-0.0124,-0.013,-0.0133,-0.0126,-0.0147,-0.0149,-0.0166,-0.0148,-0.0158,-0.0159,-0.0153,-0.0152,-0.0151,-0.0144,0,0,0,0,0,0,-0.0123,-0.012,-0.0117,-0.0116,-0.0114,-0.0109,-0.0115,-0.0117,-0.0116,-0.0118,-0.0134,-0.0136,-0.0147,-0.0165,-0.0167,-0.0149,-0.0159,-0.0153,-0.0152,-0.0151,-0.0145,-0.0143,-0.0141,0,0,0,0,0,-0.0125,-0.0121,-0.0118,-0.0114,-0.011,-0.0108,-0.011,-0.0115,-0.0115,-0.0122,-0.0139,-0.0136,-0.0158,-0.0167,-0.0168,-0.015,-0.0154,-0.0153,-0.0151,-0.0146,-0.0143,-0.0141,0,0,0,0,0,0,-0.0137,-0.0122,-0.0119,-0.0111,-0.0109,-0.011,-0.011,-0.0112,-0.013,-0.0134,-0.0144,-0.0148,-0.015,-0.0153,-0.0161,-0.0142,-0.0149,-0.0148,-0.0144,-0.0142,-0.014,-0.0142,-0.016,0,0,0,0,0,-0.0134,-0.0132,-0.0118,-0.0116,-0.0108,-0.0108,-0.0107,-0.0113,-0.0122,-0.013,-0.0144,-0.0149,-0.0145,-0.0148,-0.0153,-0.0153,-0.0156,-0.0136,-0.0134,-0.0133,-0.0135,-0.0147,-0.0147,-0.0146,-0.0146,-0.0146,0,0,-0.0141,-0.013,-0.013,-0.0118,-0.0115,-0.0113,-0.011,-0.011,-0.0114,-0.0128,-0.0148,-0.0148,-0.0144,-0.0145,-0.0143,-0.0147,-0.0129,-0.0131,-0.013,-0.0133,-0.0146,-0.0146,-0.0146,-0.0146,-0.0146,-0.0146,0,0,-0.0145,-0.0137,-0.0132,-0.0129,-0.0117,-0.0118,-0.0114,-0.0118,-0.0124,-0.0137,-0.0139,-0.0138,-0.0144,-0.0139,-0.0132,-0.0122,-0.012,-0.0109,-0.0104,-0.0116,-0.0116,-0.0117,-0.0102,-0.0102,-0.0108,-0.0108,-0.0108,0,-0.0145,-0.014,-0.0133,-0.0125,-0.012,-0.0118,-0.0113,-0.0119,-0.0135,-0.0125,-0.0143,-0.0135,-0.0139,-0.0118,-0.0117,-0.0117,-0.0119,-0.0114,-0.0115,-0.0116,-0.0117,-0.0102,-0.0101,-0.0107,-0.0107,-0.0107,-0.0108,0,-0.0154,-0.0141,-0.0137,-0.0128,-0.0127,-0.0124,-0.012,-0.0119,-0.0122,-0.0122,-0.0111,-0.0128,-0.0117,-0.011,-0.0115,-0.0104,-0.01,-0.0113,-0.0124,-0.0116,-0.01,-0.01,-0.0107,-0.0107,-0.0107,-0.0107,0,0,-0.0161,-0.0142,-0.0142,-0.0122,-0.0125,-0.0117,-0.0117,-0.0098,-0.0075,-0.0101,-0.0082,-0.0084,-0.0086,-0.008,-0.008,-0.0095,-0.0098,-0.0109,-0.0109,-0.01,-0.0108,-0.0023,-0.0015,-0.0119,-0.012,-0.012,-0.0088,0,-0.0161,-0.014,-0.0143,-0.0124,-0.0103,-0.0098,-0.0085,-0.0073,-0.0072,-0.006,-0.0063,-0.005,-0.0075,-0.0062,-0.0086,-0.0094,-0.01,-0.0105,-0.0112,-0.0111,-0.0043,-0.0013,-0.0121,-0.0088,-0.0088,-0.0087,-0.0087,0,-0.0164,-0.0144,-0.0123,-0.0078,-0.0068,-0.0057,-0.0018,-0.0008,0.0013,0.0013,0.001,-0.0004,-0.0011,-0.0044,-0.007,-0.0073,-0.0089,-0.0105,-0.0104,-0.003,-0.0026,-0.0101,-0.0087,-0.0087,-0.0087,-0.0087,-0.0087,0,-0.0152,-0.0124,-0.01,-0.0094,-0.0055,-0.0024,0.0007,0.0032,0.0061,0.0067,0.0075,0.0049,0.0052,0.0003,-0.0029,-0.0053,-0.006,-0.0093,-0.0028,-0.0021,-0.0114,-0.0114,-0.0112,-0.0113,-0.0113,-0.0113,-0.0113,0,-0.0139,-0.0115,-0.0078,-0.006,0.0004,0.0017,0.0085,0.0107,0.0134,0.0158,0.0124,0.0115,0.0059,0.0041,-0.001,0.0001,-0.0039,-0.0013,-0.0006,-0.0107,-0.0107,-0.0113,-0.0113,-0.0111,-0.0112,-0.0112,-0.0112,0,-0.0123,-0.0108,-0.0067,-0.0016,0.002,0.0068,0.0155,0.0192,0.0214,0.0234,0.0236,0.019,0.0171,0.0135,0.0081,0.0064,0.0042,0.0056,-0.0016,-0.0016,0.008,0.008,0.0127,0.013,0.0133,0.0135,0.0137,0,-0.0114,-0.0092,-0.0029,0.0013,0.0047,0.0132,0.0192,0.0239,0.0248,0.0262,0.0248,0.0258,0.0223,0.0229,0.0172,0.0147,0.0132,0.014,0.0076,0.0104,0.0105,0.01,0.0096,0.0142,0.0143,0.0143,0.0144,0,-0.0099,-0.0083,-0.005,0.0032,0.01,0.0168,0.0237,0.0256,0.0279,0.0308,0.029,0.0291,0.0291,0.0252,0.0278,0.0227,0.0139,0.0168,0.016,0.01,0.0122,0.012,0.0112,0.0154,0.0152,0.0151,0.0151,0,-0.0091,-0.007,-0.0035,0.0039,0.0114,0.0154,0.0211,0.024,0.0276,0.0287,0.0278,0.0274,0.0281,0.0295,0.0276,0.0294,0.0269,0.0246,0.0234,0.0223,0.024,0.0281,0.0381,0,0,0,0,0,-0.0081,-0.0069,-0.0023,0.0038,0.01,0.0136,0.0202,0.0235,0.0266,0.0272,0.0286,0.0285,0.0308,0.0289,0.0323,0.0291,0.0247,0.0329,0.0208,0.0207,0.0196,0.0207,0,0,0,0,0,0,-0.0076,-0.0047,-0.0044,-0.0002,0.0042,0.0097,0.0132,0.016,0.0166,0.021,0.022,0.0286,0.0294,0.0286,0.0315,0.032,0.0248,0.0352,0.0353,0.0213,0.0203,0.0194,0.0202,0,0,0,0,0]},{"header":{"parameterUnit":"m.s-1","parameterCategory":2,"la1":30.2991,"la2":30.254,"lo1":-89.0895,"lo2":-89.0444,"dy":0.0017,"dx":0.0017,"nx":28,"ny":28,"refTime":"2025-01-18T03:00:00:Z","depth":"4","parameterNumber":3,"parameterNumberName":"V-component_of_CURRENTS"},"data":[0,0,0,0,0,0,0,0,0,0,0,0,0,0,0,0,0,0,0,0,0,0,0,0,0,0,0,0,0,0,0,0,0,0,0,0,0,0,0,0,0,0,0,0,0,0,0,0,0,0,0,0,0,0,0,0,0,0,0.0507,0.0507,0,0.0508,0.0508,0.0508,0.0538,0.0538,0.0539,0.054,0.0504,0.0502,0.05,0,0,0,0,0,0,0,0,0,0,0,0,0,0.0528,0.0527,0.0507,0.0507,0.0507,0.0508,0.0508,0.0508,0.0537,0.0538,0.0539,0.054,0.0504,0.0502,0.05,0,0,0,0,0,0,0,0,0,0,0,0,0,0.0522,0.0527,0.0507,0.0522,0.0524,0.0508,0.0508,0.0508,0.0537,0.0538,0.054,0.0541,0.0505,0.0503,0.05,0.046,0,0,0.0492,0.0491,0,0,0,0,0,0,0,0,0.0522,0.0521,0.052,0.0521,0.0523,0.0525,0.0503,0.049,0.0537,0.0531,0.054,0.0541,0.0507,0.0504,0.0501,0.0458,0.0456,0.0492,0.049,0.0489,0.0489,0,0,0,0,0,0,0,0.0523,0.0521,0.0507,0.052,0.0522,0.0529,0.0529,0.05,0.0511,0.0532,0.0534,0.0535,0.0507,0.0504,0.0501,0.0456,0.0492,0.049,0.0488,0.0487,0.0381,0.038,0,0,0,0,0,0,0.0523,0.0522,0.0507,0.0507,0.0526,0.0527,0.0528,0.0522,0.0512,0.0512,0.0534,0.0536,0.0508,0.0504,0.0499,0.047,0.0489,0.0487,0.0485,0.0383,0.0381,0.038,0,0,0,0,0,0,0.0523,0.0521,0.0507,0.0515,0.0514,0.0526,0.0519,0.0522,0.0531,0.0514,0.0514,0.0543,0.0508,0.0503,0.0491,0.0469,0.0486,0.0483,0.0384,0.0382,0.038,0.0399,0,0,0,0,0,0,0.0523,0.0521,0.0521,0.0515,0.0514,0.0504,0.0518,0.0521,0.053,0.0533,0.0521,0.0519,0.0509,0.0495,0.0489,0.0465,0.0481,0.0386,0.0383,0.0381,0.04,0.0398,0.0397,0,0,0,0,0,0.0524,0.0516,0.0521,0.0519,0.0512,0.0504,0.0504,0.0516,0.0529,0.053,0.053,0.052,0.0474,0.0493,0.0485,0.0461,0.0387,0.0384,0.0381,0.0401,0.0399,0.0397,0,0,0,0,0,0,0.0525,0.0518,0.0523,0.0514,0.0514,0.051,0.0512,0.0519,0.0519,0.0524,0.0515,0.0512,0.0486,0.0469,0.0489,0.042,0.0423,0.0419,0.0441,0.0438,0.0436,0.0414,0.0479,0,0,0,0,0,0.0524,0.052,0.0514,0.051,0.0509,0.0512,0.0513,0.0518,0.0516,0.0518,0.0517,0.0497,0.0462,0.0453,0.0425,0.0395,0.0373,0.0368,0.0366,0.0365,0.0339,0.0309,0.0302,0.037,0.037,0.037,0,0,0.0522,0.052,0.0517,0.0511,0.0511,0.0509,0.0516,0.0515,0.0509,0.051,0.0511,0.0493,0.0453,0.0421,0.0406,0.041,0.0336,0.0362,0.0361,0.0335,0.0305,0.0299,0.0293,0.0368,0.0369,0.0369,0,0,0.0523,0.0515,0.0517,0.0514,0.0516,0.051,0.0513,0.0515,0.0512,0.0504,0.0494,0.0467,0.044,0.04,0.0374,0.0339,0.0327,0.0332,0.0307,0.0279,0.0273,0.0268,0.0247,0.0239,0.0333,0.0333,0.0333,0,0.0524,0.0519,0.0516,0.0519,0.0507,0.0513,0.0504,0.0499,0.0501,0.0477,0.0506,0.0437,0.0417,0.0343,0.0336,0.0332,0.0324,0.0327,0.0278,0.0272,0.0267,0.0246,0.0238,0.0334,0.0334,0.0334,0.0333,0,0.0531,0.0524,0.0522,0.0523,0.0511,0.0502,0.0488,0.0479,0.0478,0.0467,0.0415,0.0397,0.0348,0.0338,0.0328,0.0263,0.0274,0.0284,0.0291,0.0261,0.0241,0.0232,0.0334,0.0334,0.0334,0.0334,0,0,0.0528,0.0526,0.0525,0.0515,0.0504,0.049,0.0463,0.0421,0.0395,0.0395,0.0347,0.0297,0.0292,0.0258,0.0244,0.022,0.0186,0.0239,0.0238,0.0229,0.0134,0.0131,0.0121,0.0205,0.0203,0.0202,0.0143,0,0.0529,0.0527,0.0519,0.0499,0.0485,0.0458,0.0434,0.0397,0.0368,0.0334,0.0286,0.0254,0.026,0.0246,0.0216,0.0188,0.016,0.0201,0.0152,0.0149,0.016,0.0109,0.0196,0.0136,0.0134,0.0132,0.0131,0,0.0533,0.0523,0.051,0.0465,0.0456,0.0457,0.0383,0.0363,0.0301,0.0275,0.0223,0.0203,0.0141,0.0174,0.01,0.0134,0.0123,0.0113,0.0112,0.0087,0.0128,0.0164,0.0115,0.0116,0.0117,0.0118,0.0119,0,0.052,0.0504,0.0487,0.0479,0.0447,0.0427,0.0411,0.0353,0.0327,0.025,0.0225,0.0149,0.0127,0.0089,0.0061,0.0085,-0.0002,0.003,0.0009,0.001,0.0027,0.0033,-0.0029,-0.0029,-0.0029,-0.0029,-0.0029,0,0.0503,0.049,0.0495,0.0484,0.0472,0.0439,0.042,0.0375,0.0326,0.029,0.0218,0.0165,0.011,0.0056,0.0035,-0.0016,-0.0026,-0.0025,-0.0019,0.0038,0.0046,0.0022,0.0028,-0.0031,-0.0031,-0.003,-0.003,0,0.049,0.0496,0.0479,0.0461,0.0474,0.0467,0.0472,0.0455,0.0391,0.0337,0.0317,0.0187,0.0105,0.005,-0.0021,-0.0044,-0.0092,-0.0103,-0.0051,-0.0036,-0.0053,-0.0045,-0.0144,-0.0144,-0.0145,-0.0146,-0.0146,0,0.0478,0.0471,0.0486,0.0519,0.0529,0.0541,0.0563,0.0509,0.0463,0.0345,0.0296,0.0202,0.0123,0.0012,-0.0058,-0.0122,-0.0116,-0.0148,-0.0105,-0.0087,-0.0071,-0.0062,-0.0053,-0.0148,-0.0148,-0.0148,-0.0148,0,0.0434,0.0457,0.0451,0.0529,0.0573,0.0605,0.0599,0.0563,0.0473,0.0435,0.0298,0.0215,0.0107,0.0007,-0.0046,-0.0091,-0.0138,-0.0156,-0.0154,-0.0113,-0.0093,-0.0074,-0.0065,-0.0151,-0.0151,-0.015,-0.015,0,0.0412,0.0421,0.0447,0.0531,0.0605,0.0637,0.0622,0.0564,0.0515,0.0365,0.0325,0.0207,0.0135,0.002,-0.004,-0.0082,-0.0081,-0.0083,-0.0084,-0.0082,-0.0045,-0.0009,-0.0062,0,0,0,0,0,0.0386,0.0421,0.0465,0.0527,0.0611,0.0664,0.0637,0.0592,0.0498,0.0429,0.0375,0.0281,0.0158,0.0061,0.0026,-0.0057,-0.0097,-0.0105,-0.01,-0.0166,-0.0163,-0.0131,0,0,0,0,0,0,0.0367,0.0397,0.0442,0.0535,0.0611,0.0662,0.0664,0.0589,0.0504,0.0422,0.0352,0.0306,0.0178,0.0231,0.0052,0.0024,0.0022,-0.0168,-0.0169,-0.0168,-0.0165,-0.0162,-0.0129,0,0,0,0,0]}]]